Regional Weather Roundup
Issued by NWS Kansas City/Pleasant Hill, MO

Home | Current Version | Previous Version | Graphics & Text | Print | Product List | Glossary Off
Versions: 1 2 3 4 5 6 7 8 9 10 11 12 13 14 15 16 17 18 19 20 21 22 23 24 25 26 27 28 29 30 31 32 33 34 35 36 37 38 39 40 41 42 43 44 45 46 47 48 49 50

000
ASUS43 KEAX 180510
RWREAX

WEATHER ROUNDUP FOR EASTERN KANSAS AND NORTHWEST MISSOURI
NATIONAL WEATHER SERVICE KANSAS CITY/PLEASANT HILL MO
1200 AM CDT SAT APR 18 2015

KSZ040-057-103>105-MOZ028-029-037-043-180600-
...KANSAS CITY METROPOLITAN AREA...

CITY           SKY/WX    TMP DP  RH WIND       PRES   REMARKS
K.C. INTL      MOCLDY    64  59  83 E6        29.98F
K.C. DOWNTOWN  CLOUDY    65  60  84 CALM      29.97S
LEES SUMMIT    MOCLDY    69  57  65 CALM      29.98F
OLATHE - IXD   CLOUDY    64  58  80 E6        29.97F
OLATHE - OJC   CLOUDY    64  58  80 E3        29.97F
LAWRENCE       CLOUDY    59  57  93 CALM      29.96F

$$

MOZ001>008-011>017-020>025-030>033-038>040-044>046-053-054-180600-
...NORTHERN AND CENTRAL MISSOURI...

CITY           SKY/WX    TMP DP  RH WIND       PRES   REMARKS
ST. JOSEPH     MOCLDY    60  55  83 CALM      29.98S
MOSBY          CLOUDY    63  59  88 CALM      29.98S
WARRENSBURG    CLOUDY    66  55  68 CALM      29.98S
WHITEMAN AFB   MOCLDY    65  56  72 S2        29.97F
CLINTON        MOCLDY    66  61  82 CALM      29.99S
SEDALIA        MOCLDY    68  55  63 E5        29.99S
WARSAW         NOT AVBL
CHILLICOTHE      N/A     65  57  75 SE3       30.00R
MOBERLY        MOCLDY    66  52  59 SE6       30.02R
KIRKSVILLE     PTCLDY    65  55  70 SE5       30.02R

$$

MOZ041-047>049-056>058-063>065-088>090-097-180600-
...EASTERN AND SOUTHERN MISSOURI...

CITY           SKY/WX    TMP DP  RH WIND       PRES   REMARKS
ST. LOUIS INTL PTCLDY    66  55  67 E7        30.02S
SPIRIT OF STL  PTCLDY    59  55  87 CALM      30.01R
COLUMBIA       PTCLDY    66  55  67 E6        30.00R
JEFFERSON CITY PTCLDY    69  56  62 E7        29.99R
MEXICO         CLEAR     66  59  77 E3        30.01
HANNIBAL       CLEAR     68  50  52 SE3       30.01S
ROLLA          PTCLDY    65  53  65 SE9       30.00S
LEBANON        MOCLDY    64  57  77 S7        30.01S
OSAGE BEACH    PTCLDY    66  54  63 SE5       29.99S
SPRINGFIELD    CLOUDY    64  58  80 SE7       29.99F
BRANSON        CLOUDY    63  59  88 SE5       30.01S
NEVADA         CLOUDY    63  59  88 E3        29.98F
JOPLIN         CLOUDY    64  60  87 E3        29.96F
WEST PLAINS    CLOUDY    63  59  87 E6        30.04R

$$

IAZ060-094-KSZ022-034>040-054-083-096-NEZ052-066-093-180600-
...KANSAS...SOUTHEAST NEBRASKA AND IOWA...

CITY           SKY/WX    TMP DP  RH WIND       PRES   REMARKS
TOPEKA         CLOUDY    61  57  87 CALM      29.96F
MANHATTAN      CLOUDY    65  57  75 N3        29.95F
EMPORIA        CLOUDY    62  58  86 E6        29.96S
CHANUTE        CLOUDY    64  61  90 E3        29.96F
WICHITA        CLOUDY    62  57  83 CALM      29.95S
OMAHA          CLOUDY    63  55  75 N3        29.99S
LINCOLN        CLOUDY    63  56  78 CALM      29.98F
FALLS CITY     CLOUDY    63  55  75 NE5       29.97S
LAMONI         CLOUDY    66  54  65 NE5       30.00S
DES MOINES     CLOUDY    66  52  60 CALM      30.01R

$$




USA.gov is the U.S. government's official web portal to all federal, state and local government web resources and services.